When you browse on this site, cookies collect data to enhance your experience and personalize the content and advertising you see.
Visit our Privacy Policy to learn more. By continuing to use the site, you agree to this use of cookies and data.
  • în România
  • Lista ţărilor
  • Pe 7 zile
  • Temperatura apei
  • Hartă satelitară
  • Meteo pe hartă
  • Widget-uri
  • user-avatar
    Intrare

    Meteo pe oră la Sorola

    Astăzi, 20 Februarie, Miercuri

    Timp Temperatura Precipitaţii Vânt Presiune Umiditate
    00:00 -1°C° 0.1 mm 2 m/s 739 mmHg 96%
    01:00 +1°C° 0.1 mm 1 m/s 738 mmHg 97%
    02:00 0°C° 0 mm 1 m/s 737 mmHg 97%
    03:00 0°C° 0 mm 1 m/s 737 mmHg 97%
    04:00 0°C° 0 mm 1 m/s 737 mmHg 97%
    05:00 0°C° 0 mm 1 m/s 737 mmHg 97%
    06:00 -2°C° 0 mm 2 m/s 737 mmHg 97%
    07:00 -2°C° 0 mm 2 m/s 736 mmHg 97%
    08:00 -2°C° 0 mm 2 m/s 736 mmHg 98%
    09:00 -4°C° 0.1 mm 3 m/s 736 mmHg 97%
    10:00 -4°C° 0.1 mm 3 m/s 737 mmHg 97%
    11:00 -4°C° 0.1 mm 4 m/s 737 mmHg 96%
    12:00 -6°C° 0.1 mm 5 m/s 737 mmHg 95%
    13:00 -7°C° 0.1 mm 5 m/s 738 mmHg 94%
    14:00 -9°C° 0.1 mm 6 m/s 739 mmHg 93%
    15:00 -11°C° 0.3 mm 7 m/s 740 mmHg 91%
    16:00 -11°C° 0.3 mm 8 m/s 741 mmHg 90%
    17:00 -12°C° 0.3 mm 8 m/s 742 mmHg 89%
    18:00 -12°C° 0.3 mm 9 m/s 743 mmHg 88%
    19:00 -14°C° 0.3 mm 9 m/s 744 mmHg 87%
    20:00 -14°C° 0.3 mm 9 m/s 746 mmHg 87%
    21:00 -14°C° 0.2 mm 9 m/s 747 mmHg 84%
    22:00 -14°C° 0.2 mm 9 m/s 748 mmHg 81%
    23:00 -13°C° 0.2 mm 8 m/s 750 mmHg 78%

    Mâine, 21 Februarie, Joi

    Timp Temperatura Precipitaţii Vânt Presiune Umiditate
    00:00 -13°C° 0 mm 8 m/s 751 mmHg 79%
    01:00 -14°C° 0 mm 7 m/s 752 mmHg 80%
    02:00 -14°C° 0 mm 6 m/s 753 mmHg 81%
    03:00 -14°C° 0 mm 6 m/s 753 mmHg 82%
    04:00 -15°C° 0 mm 6 m/s 754 mmHg 84%
    05:00 -15°C° 0 mm 6 m/s 755 mmHg 85%
    06:00 -16°C° 0 mm 6 m/s 756 mmHg 86%
    07:00 -17°C° 0 mm 5 m/s 757 mmHg 87%
    08:00 -18°C° 0 mm 5 m/s 758 mmHg 89%
    09:00 -18°C° 0 mm 5 m/s 758 mmHg 88%
    10:00 -17°C° 0 mm 5 m/s 759 mmHg 88%
    11:00 -15°C° 0 mm 5 m/s 760 mmHg 88%
    12:00 -15°C° 0 mm 5 m/s 760 mmHg 88%
    13:00 -15°C° 0 mm 4 m/s 761 mmHg 87%
    14:00 -14°C° 0 mm 4 m/s 762 mmHg 87%
    15:00 -15°C° 0 mm 4 m/s 762 mmHg 89%
    16:00 -16°C° 0 mm 4 m/s 763 mmHg 90%
    17:00 -17°C° 0 mm 4 m/s 763 mmHg 92%
    18:00 -17°C° 0 mm 4 m/s 764 mmHg 92%
    19:00 -18°C° 0 mm 4 m/s 765 mmHg 93%
    20:00 -18°C° 0 mm 4 m/s 766 mmHg 93%
    21:00 -18°C° 0 mm 4 m/s 766 mmHg 93%
    22:00 -19°C° 0 mm 4 m/s 767 mmHg 92%
    23:00 -19°C° 0 mm 4 m/s 767 mmHg 92%

    Poimâine, 22 Februarie, Vineri

    Timp Temperatura Precipitaţii Vânt Presiune Umiditate
    00:00 -19°C° 0 mm 4 m/s 768 mmHg 92%
    01:00 -19°C° 0 mm 4 m/s 768 mmHg 91%
    02:00 -19°C° 0 mm 4 m/s 769 mmHg 91%
    03:00 -19°C° 0 mm 4 m/s 770 mmHg 90%
    04:00 -20°C° 0 mm 4 m/s 770 mmHg 89%
    05:00 -20°C° 0 mm 4 m/s 771 mmHg 88%
    06:00 -19°C° 0 mm 3 m/s 771 mmHg 87%
    07:00 -19°C° 0 mm 3 m/s 772 mmHg 87%
    08:00 -19°C° 0 mm 3 m/s 773 mmHg 87%
    09:00 -18°C° 0 mm 3 m/s 773 mmHg 86%
    10:00 -17°C° 0 mm 3 m/s 774 mmHg 86%
    11:00 -15°C° 0 mm 2 m/s 775 mmHg 86%
    12:00 -14°C° 0 mm 2 m/s 775 mmHg 87%
    13:00 -13°C° 0 mm 2 m/s 775 mmHg 87%
    14:00 -13°C° 0 mm 2 m/s 775 mmHg 88%
    15:00 -14°C° 0 mm 2 m/s 776 mmHg 87%
    16:00 -15°C° 0 mm 2 m/s 776 mmHg 86%
    17:00 -16°C° 0 mm 2 m/s 776 mmHg 86%
    18:00 -16°C° 0 mm 2 m/s 776 mmHg 85%
    19:00 -16°C° 0 mm 2 m/s 776 mmHg 84%
    20:00 -17°C° 0 mm 3 m/s 775 mmHg 83%
    21:00 -17°C° 0 mm 3 m/s 775 mmHg 81%
    22:00 -18°C° 0 mm 4 m/s 775 mmHg 80%
    23:00 -17°C° 0 mm 4 m/s 774 mmHg 79%

    23 Februarie, Sâmbătă

    Timp Temperatura Precipitaţii Vânt Presiune Umiditate
    00:00 -17°C° 0 mm 5 m/s 773 mmHg 76%
    01:00 -15°C° 0 mm 5 m/s 772 mmHg 74%
    02:00 -15°C° 0 mm 6 m/s 771 mmHg 71%
    03:00 -14°C° 0 mm 6 m/s 770 mmHg 73%
    04:00 -13°C° 0 mm 7 m/s 769 mmHg 75%
    05:00 -12°C° 0 mm 8 m/s 767 mmHg 76%
    06:00 -12°C° 0.9 mm 8 m/s 766 mmHg 81%
    07:00 -11°C° 0.9 mm 8 m/s 765 mmHg 86%
    08:00 -11°C° 0.9 mm 9 m/s 764 mmHg 91%
    09:00 -10°C° 0.3 mm 8 m/s 763 mmHg 89%
    10:00 -8°C° 0.3 mm 8 m/s 762 mmHg 88%
    11:00 -6°C° 0.3 mm 8 m/s 761 mmHg 86%
    12:00 -4°C° 0 mm 7 m/s 760 mmHg 87%
    13:00 -4°C° 0 mm 7 m/s 760 mmHg 87%
    14:00 -3°C° 0 mm 7 m/s 759 mmHg 87%
    15:00 -2°C° 0.1 mm 6 m/s 759 mmHg 90%
    16:00 -2°C° 0.1 mm 6 m/s 760 mmHg 92%
    17:00 0°C° 0.1 mm 5 m/s 760 mmHg 94%
    18:00 0°C° 0.1 mm 5 m/s 760 mmHg 92%
    19:00 0°C° 0.1 mm 5 m/s 761 mmHg 91%
    20:00 0°C° 0.1 mm 4 m/s 761 mmHg 90%
    21:00 -1°C° 0 mm 4 m/s 762 mmHg 89%
    22:00 -1°C° 0 mm 4 m/s 762 mmHg 89%
    23:00 -2°C° 0 mm 4 m/s 763 mmHg 89%

    24 Februarie, Duminică

    Timp Temperatura Precipitaţii Vânt Presiune Umiditate
    00:00 -3°C° 0 mm 4 m/s 763 mmHg 89%
    01:00 -3°C° 0 mm 4 m/s 763 mmHg 90%
    02:00 -3°C° 0 mm 4 m/s 763 mmHg 90%
    03:00 -4°C° 0 mm 3 m/s 764 mmHg 90%
    04:00 -4°C° 0 mm 3 m/s 764 mmHg 90%
    05:00 -5°C° 0 mm 3 m/s 764 mmHg 90%
    06:00 -5°C° 0 mm 3 m/s 764 mmHg 90%
    07:00 -6°C° 0 mm 3 m/s 764 mmHg 90%
    08:00 -6°C° 0 mm 3 m/s 765 mmHg 89%
    09:00 -5°C° 0 mm 3 m/s 764 mmHg 89%
    10:00 -4°C° 0 mm 3 m/s 764 mmHg 88%
    11:00 -2°C° 0 mm 3 m/s 764 mmHg 87%
    12:00 -1°C° 0 mm 3 m/s 763 mmHg 87%
    13:00 -1°C° 0 mm 3 m/s 763 mmHg 86%
    14:00 0°C° 0 mm 3 m/s 762 mmHg 86%
    15:00 -1°C° 0.1 mm 4 m/s 762 mmHg 88%
    16:00 -1°C° 0.1 mm 4 m/s 761 mmHg 89%
    17:00 -1°C° 0.1 mm 5 m/s 760 mmHg 90%
    18:00 -1°C° 0 mm 5 m/s 759 mmHg 92%
    19:00 -1°C° 0 mm 5 m/s 759 mmHg 94%
    20:00 0°C° 0 mm 5 m/s 758 mmHg 95%
    21:00 0°C° 0.1 mm 5 m/s 757 mmHg 96%
    22:00 0°C° 0.1 mm 5 m/s 756 mmHg 96%
    23:00 0°C° 0.1 mm 5 m/s 756 mmHg 96%

    25 Februarie, Luni

    Timp Temperatura Precipitaţii Vânt Presiune Umiditate
    00:00 0°C° 0.1 mm 5 m/s 755 mmHg 94%
    01:00 0°C° 0.1 mm 5 m/s 755 mmHg 93%
    02:00 0°C° 0.1 mm 5 m/s 755 mmHg 92%
    03:00 -1°C° 0 mm 5 m/s 755 mmHg 88%
    04:00 -2°C° 0 mm 5 m/s 755 mmHg 85%
    05:00 -4°C° 0 mm 5 m/s 755 mmHg 81%
    06:00 -4°C° 0 mm 5 m/s 754 mmHg 82%
    07:00 -5°C° 0 mm 5 m/s 754 mmHg 83%
    08:00 -6°C° 0 mm 5 m/s 754 mmHg 85%
    09:00 -5°C° 0 mm 5 m/s 753 mmHg 85%
    10:00 -4°C° 0 mm 6 m/s 753 mmHg 85%
    11:00 -3°C° 0 mm 6 m/s 752 mmHg 85%
    12:00 -2°C° 0 mm 5 m/s 751 mmHg 84%
    13:00 -1°C° 0 mm 5 m/s 751 mmHg 84%
    14:00 -1°C° 0 mm 5 m/s 750 mmHg 83%
    15:00 -2°C° 0.3 mm 6 m/s 750 mmHg 82%
    16:00 -2°C° 0.3 mm 7 m/s 751 mmHg 82%
    17:00 -2°C° 0.3 mm 8 m/s 751 mmHg 81%
    18:00 -3°C° 0 mm 7 m/s 752 mmHg 81%
    19:00 -4°C° 0 mm 6 m/s 753 mmHg 82%
    20:00 -5°C° 0 mm 5 m/s 754 mmHg 82%
    21:00 -5°C° 0 mm 6 m/s 755 mmHg 83%
    22:00 -5°C° 0 mm 6 m/s 755 mmHg 84%
    23:00 -5°C° 0 mm 6 m/s 756 mmHg 85%
    Arată mai mult